Location: Raitis
(47.2167°N, 11.3833°E)
Time: 08:38:42
(UTC+00:00)

Ariane Rocket - Pass Details

Date: 03 March 2021
Orbit: 759 x 771 km, 98.7° (Epoch: 14 April)

Event Time Altitude Azimuth Distance (km) Brightness Sun altitude
Exits shadow 18:42:04 26° 131° (SE) 1,494 4.0 -17.6°
Maximum altitude 18:44:42 50° 69° (ENE) 982 3.2 -18.0°
Drops below altitude 10° 18:49:38 10° 355° (N) 2,323 5.7 -18.9°
Sets 18:52:00 0° 350° (N) 3,253 6.5 -19.3°
